Content
SEND FEEDBACK

Daily
Averages
Monthly
Summary
United States of America

BYRON, CALIFORNIA


Home > North America > United States > California
Elevation: 6 feet     Latitude: 37 48N     Longitude: 121 35W

WEATHER
 
SELECT A DAY
Number of Records: 173,838;   Date Range: 1/1/95 - 9/18/14
 
SHARE

PRINT THIS DATA

[ ← Previous Day ]
WEATHER ALMANAC - JANUARY 31, 2013
[ Next Day → ]
[ °C ]   °F
Weather ElementAverageHighLow
Temperature47.8 °F62.1 °F (2:53 pm)37 °F (3:53 am)
Dewpoint39.5 °F46 °F (4:53 pm)33.1 °F (3:53 am)
Humidity74.6 %89 % (1:53 am)52 % (12:53 pm)
Barometer30.24 in30.30 in (7:53 am)30.19 in (3:53 pm)
Wind Speed3.7 mph12.7 mph (11:53 am)
Wind Gust19.6 mph (11:53 am)
Weather ElementAverage
Visibility9.2 mi
Wind DirectionNNE (24.5 °)

Weather ElementTotal
Precipitation---
Heating Degree Days15.5 (Base 65)
Averaged from 22 records on January 31, 2013
WEATHER CONDITIONS BREAKOUT
WIND DIRECTION BREAKOUT
WEATHER BY HOUR - JANUARY 31, 2013
[ °C ]   °F
Local TimeTemperatureDewpointHumidityBarometerVisibilityWind DirectionWind SpeedGust SpeedPrecipitationEventsConditions
1:53 AM37.9 °F35.1 °F89 %30.29 in10.0 miCalmClear
2:53 AM39.0 °F34.0 °F82 %30.28 in10.0 miCalmClear
3:53 AM37.0 °F33.1 °F86 %30.27 in10.0 miCalmClear
4:53 AM37.9 °F34.0 °F86 %30.28 in10.0 miCalmClear
5:53 AM37.0 °F34.0 °F89 %30.27 in10.0 miCalmClear
6:53 AM37.0 °F34.0 °F89 %30.28 in10.0 miCalmClear
7:53 AM37.0 °F34.0 °F89 %30.30 in10.0 miCalmClear
8:53 AM43.0 °F37.0 °F80 %30.30 in10.0 miCalmClear
9:53 AM46.9 °F39.0 °F74 %30.30 in10.0 miCalmClear
10:53 AM55.0 °F42.1 °F62 %30.29 in10.0 miCalmClear
11:53 AM59.0 °F44.1 °F58 %30.27 in10.0 miEast (80°)12.7 mph19.6 mphClear
12:53 PM61.0 °F43.0 °F52 %30.24 in10.0 miNE (40°)12.7 mph17.3 mphClear
1:53 PM61.0 °F43.0 °F52 %30.21 in10.0 miENE (60°)9.2 mphClear
2:53 PM62.1 °F45.0 °F53 %30.20 in10.0 miENE (60°)10.4 mphClear
3:53 PM61.0 °F45.0 °F56 %30.19 in10.0 miNE (50°)10.4 mphClear
4:53 PM59.0 °F46.0 °F62 %30.19 in9.0 miNE (50°)10.4 mphClear
5:53 PM55.9 °F44.1 °F64 %30.19 in10.0 miNE (50°)6.9 mphClear
6:53 PM48.0 °F42.1 °F80 %30.20 in9.0 miENE (70°)4.6 mphClear
7:53 PM48.9 °F42.1 °F77 %30.20 in8.0 miEast (80°)3.5 mphClear
9:53 PM45.0 °F41.0 °F86 %30.20 in6.0 miCalmClear
10:53 PM43.0 °F39.0 °F86 %30.20 in6.0 miCalmClear
11:53 PM41.0 °F37.9 °F89 %30.20 in5.0 miCalmClear
Hourly data recorded from KLVK, located miles away from Byron, California







STORIES FROM OUR PARTNERS